When you browse on this site, cookies collect data to enhance your experience and personalize the content and advertising you see.
Visit our Privacy Policy to learn more. By continuing to use the site, you agree to this use of cookies and data.
  • In Sweden
  • List of Countries
  • For 7 days
  • Water Temperature
  • Satellite Maps
  • Weather Map
  • Weather Widgets
  • user-avatar
    Login

    Hourly Weather Igls

    Today, 24 March, Sunday

    Time Temperature Precipitation Wind Pressure Humidity
    00:00 +7°C° 0 mm 1 mps 689 mmHg 82%
    01:00 +6°C° 0 mm 2 mps 689 mmHg 77%
    02:00 +6°C° 0 mm 2 mps 689 mmHg 76%
    03:00 +6°C° 0 mm 2 mps 689 mmHg 74%
    04:00 +5°C° 0 mm 2 mps 689 mmHg 73%
    05:00 +5°C° 0 mm 2 mps 689 mmHg 71%
    06:00 +6°C° 0 mm 2 mps 688 mmHg 69%
    07:00 +6°C° 0 mm 2 mps 688 mmHg 67%
    08:00 +9°C° 0 mm 1 mps 688 mmHg 64%
    09:00 +12°C° 0 mm 1 mps 688 mmHg 61%
    10:00 +15°C° 0 mm 1 mps 688 mmHg 58%
    11:00 +16°C° 0 mm 1 mps 688 mmHg 57%
    12:00 +16°C° 0 mm 1 mps 688 mmHg 55%
    13:00 +18°C° 0 mm 1 mps 688 mmHg 53%
    14:00 +18°C° 0 mm 1 mps 687 mmHg 57%
    15:00 +16°C° 0 mm 1 mps 687 mmHg 61%
    16:00 +15°C° 0 mm 1 mps 687 mmHg 64%
    17:00 +13°C° 0.1 mm 1 mps 686 mmHg 73%
    18:00 +11°C° 0.1 mm 1 mps 686 mmHg 81%
    19:00 +9°C° 0.1 mm 1 mps 686 mmHg 89%
    20:00 +9°C° 0.1 mm 1 mps 686 mmHg 91%
    21:00 +9°C° 0.1 mm 1 mps 686 mmHg 92%
    22:00 +8°C° 0.1 mm 1 mps 686 mmHg 94%
    23:00 +8°C° 0.1 mm 1 mps 686 mmHg 94%

    Tomorrow, 25 March, Monday

    Time Temperature Precipitation Wind Pressure Humidity
    00:00 +8°C° 0.1 mm 1 mps 686 mmHg 95%
    01:00 +7°C° 0.1 mm 1 mps 686 mmHg 96%
    02:00 +7°C° 0 mm 1 mps 685 mmHg 96%
    03:00 +7°C° 0 mm 1 mps 685 mmHg 96%
    04:00 +7°C° 0 mm 1 mps 685 mmHg 95%
    05:00 +7°C° 0.1 mm 1 mps 685 mmHg 96%
    06:00 +7°C° 0.1 mm 1 mps 685 mmHg 96%
    07:00 +7°C° 0.1 mm 1 mps 685 mmHg 96%
    08:00 +6°C° 0.2 mm 2 mps 684 mmHg 92%
    09:00 +7°C° 0.2 mm 2 mps 684 mmHg 88%
    10:00 +7°C° 0.2 mm 2 mps 684 mmHg 84%
    11:00 +7°C° 0.3 mm 2 mps 684 mmHg 83%
    12:00 +7°C° 0.3 mm 3 mps 683 mmHg 82%
    13:00 +7°C° 0.3 mm 3 mps 683 mmHg 81%
    14:00 +5°C° 0.4 mm 3 mps 683 mmHg 83%
    15:00 +4°C° 0.4 mm 3 mps 682 mmHg 85%
    16:00 +3°C° 0.4 mm 3 mps 682 mmHg 87%
    17:00 +2°C° 1 mm 3 mps 682 mmHg 89%
    18:00 +1°C° 1 mm 3 mps 683 mmHg 92%
    19:00 0°C° 1 mm 3 mps 683 mmHg 94%
    20:00 -1°C° 0.5 mm 3 mps 684 mmHg 94%
    21:00 -1°C° 0.5 mm 3 mps 684 mmHg 93%
    22:00 -2°C° 0.5 mm 3 mps 685 mmHg 92%
    23:00 -2°C° 0.2 mm 3 mps 686 mmHg 93%

    Day after tomorrow, 26 March, Tuesday

    Time Temperature Precipitation Wind Pressure Humidity
    00:00 -3°C° 0.2 mm 2 mps 686 mmHg 93%
    01:00 -3°C° 0.2 mm 2 mps 686 mmHg 93%
    02:00 -3°C° 0.3 mm 2 mps 687 mmHg 92%
    03:00 -3°C° 0.3 mm 2 mps 687 mmHg 91%
    04:00 -3°C° 0.3 mm 2 mps 688 mmHg 90%
    05:00 -1°C° 0.1 mm 1 mps 688 mmHg 89%
    06:00 -1°C° 0.1 mm 1 mps 688 mmHg 89%
    07:00 -1°C° 0.1 mm 1 mps 689 mmHg 88%
    08:00 -2°C° 0.1 mm 2 mps 689 mmHg 82%
    09:00 -1°C° 0.1 mm 2 mps 689 mmHg 77%
    10:00 +2°C° 0.1 mm 2 mps 690 mmHg 71%
    11:00 +2°C° 0 mm 2 mps 690 mmHg 70%
    12:00 +3°C° 0 mm 2 mps 690 mmHg 70%
    13:00 +3°C° 0 mm 2 mps 690 mmHg 69%
    14:00 +3°C° 0 mm 2 mps 689 mmHg 70%
    15:00 +3°C° 0 mm 2 mps 689 mmHg 71%
    16:00 +3°C° 0 mm 2 mps 689 mmHg 72%
    17:00 +2°C° 0 mm 2 mps 689 mmHg 78%
    18:00 +1°C° 0 mm 1 mps 689 mmHg 85%
    19:00 0°C° 0 mm 1 mps 689 mmHg 91%
    20:00 -1°C° 0 mm 1 mps 690 mmHg 91%
    21:00 -1°C° 0 mm 1 mps 690 mmHg 91%
    22:00 -2°C° 0 mm 1 mps 690 mmHg 91%
    23:00 -2°C° 0 mm 1 mps 690 mmHg 89%

    27 March, Wednesday

    Time Temperature Precipitation Wind Pressure Humidity
    00:00 -2°C° 0 mm 1 mps 690 mmHg 88%
    01:00 -2°C° 0 mm 1 mps 690 mmHg 86%
    02:00 -2°C° 0 mm 1 mps 690 mmHg 84%
    03:00 -1°C° 0 mm 1 mps 690 mmHg 83%
    04:00 -1°C° 0 mm 1 mps 690 mmHg 81%
    05:00 -1°C° 0 mm 1 mps 690 mmHg 81%
    06:00 0°C° 0 mm 1 mps 690 mmHg 80%
    07:00 0°C° 0 mm 1 mps 691 mmHg 80%
    08:00 +2°C° 0 mm 1 mps 691 mmHg 77%
    09:00 +3°C° 0 mm 1 mps 691 mmHg 74%
    10:00 +3°C° 0 mm 2 mps 691 mmHg 71%
    11:00 +4°C° 0 mm 2 mps 691 mmHg 73%
    12:00 +4°C° 0 mm 2 mps 691 mmHg 74%
    13:00 +4°C° 0 mm 2 mps 691 mmHg 76%
    14:00 +4°C° 0 mm 2 mps 691 mmHg 77%
    15:00 +4°C° 0 mm 2 mps 690 mmHg 78%
    16:00 +4°C° 0 mm 2 mps 690 mmHg 79%
    17:00 +3°C° 0 mm 2 mps 690 mmHg 84%
    18:00 +3°C° 0 mm 1 mps 691 mmHg 89%
    19:00 +2°C° 0 mm 1 mps 691 mmHg 94%
    20:00 +1°C° 0 mm 1 mps 691 mmHg 94%
    21:00 +1°C° 0 mm 1 mps 692 mmHg 94%
    22:00 0°C° 0 mm 1 mps 692 mmHg 94%
    23:00 0°C° 0 mm 1 mps 692 mmHg 93%

    28 March, Thursday

    Time Temperature Precipitation Wind Pressure Humidity
    00:00 -1°C° 0 mm 1 mps 692 mmHg 92%
    01:00 -1°C° 0 mm 1 mps 692 mmHg 91%
    02:00 -1°C° 0 mm 1 mps 692 mmHg 90%
    03:00 -1°C° 0 mm 1 mps 692 mmHg 89%
    04:00 -1°C° 0 mm 1 mps 692 mmHg 88%
    05:00 -1°C° 0 mm 1 mps 692 mmHg 86%
    06:00 0°C° 0 mm 1 mps 692 mmHg 84%
    07:00 0°C° 0 mm 1 mps 692 mmHg 82%
    08:00 +2°C° 0 mm 1 mps 692 mmHg 78%
    09:00 +4°C° 0 mm 1 mps 692 mmHg 74%
    10:00 +6°C° 0 mm 2 mps 692 mmHg 70%
    11:00 +6°C° 0 mm 2 mps 692 mmHg 70%
    12:00 +6°C° 0 mm 2 mps 692 mmHg 71%
    13:00 +7°C° 0 mm 2 mps 692 mmHg 72%
    14:00 +7°C° 0.1 mm 2 mps 691 mmHg 73%
    15:00 +6°C° 0.1 mm 2 mps 691 mmHg 74%
    16:00 +6°C° 0.1 mm 2 mps 691 mmHg 74%
    17:00 +6°C° 0 mm 1 mps 691 mmHg 81%
    18:00 +4°C° 0 mm 1 mps 691 mmHg 87%
    19:00 +3°C° 0 mm 1 mps 691 mmHg 93%
    20:00 +2°C° 0 mm 1 mps 691 mmHg 93%
    21:00 +2°C° 0 mm 1 mps 691 mmHg 94%
    22:00 +1°C° 0 mm 1 mps 692 mmHg 94%
    23:00 +1°C° 0 mm 1 mps 692 mmHg 92%

    29 March, Friday

    Time Temperature Precipitation Wind Pressure Humidity
    00:00 +1°C° 0 mm 1 mps 692 mmHg 91%
    01:00 +1°C° 0 mm 1 mps 692 mmHg 89%
    02:00 +1°C° 0 mm 1 mps 692 mmHg 87%
    03:00 +1°C° 0 mm 1 mps 692 mmHg 85%
    04:00 +1°C° 0 mm 1 mps 691 mmHg 83%
    05:00 +1°C° 0 mm 1 mps 692 mmHg 81%
    06:00 +2°C° 0 mm 1 mps 692 mmHg 78%
    07:00 +2°C° 0 mm 1 mps 692 mmHg 76%
    08:00 +5°C° 0 mm 1 mps 692 mmHg 70%
    09:00 +7°C° 0 mm 1 mps 692 mmHg 64%
    10:00 +9°C° 0 mm 0 mps 692 mmHg 58%
    11:00 +10°C° 0 mm 1 mps 692 mmHg 58%
    12:00 +11°C° 0 mm 1 mps 692 mmHg 58%
    13:00 +12°C° 0 mm 1 mps 691 mmHg 58%
    14:00 +11°C° 0 mm 1 mps 691 mmHg 62%
    15:00 +11°C° 0 mm 1 mps 691 mmHg 65%
    16:00 +11°C° 0 mm 1 mps 690 mmHg 69%
    17:00 +9°C° 0 mm 1 mps 690 mmHg 77%
    18:00 +7°C° 0 mm 1 mps 690 mmHg 85%
    19:00 +4°C° 0 mm 0 mps 690 mmHg 92%
    20:00 +4°C° 0 mm 1 mps 690 mmHg 90%
    21:00 +4°C° 0 mm 1 mps 690 mmHg 88%
    22:00 +4°C° 0 mm 1 mps 691 mmHg 86%
    23:00 +3°C° 0 mm 2 mps 690 mmHg 83%
    Show more